SEAAE BGBW-BGKK

Flight info

Callsign SEAAE
Flight time 2h 39m
Altitude 5000
Route KAYAK
Aircraft PA24/L-SDGRY/S

Departure

Time 2026-04-17 11:10
Airport Narsarsuaq Airport (BGBW)

Arrival

Time 2026-04-17 13:49
Airport Kulusuk Airport (BGKK)
Time Latitude Longitude Altitude Speed Heading
2026-04-17 11:01 61.16277 -45.41820 65 ft 0 kts 38°
2026-04-17 11:06 61.16286 -45.41806 65 ft 6 kts 38°
2026-04-17 11:06 61.16338 -45.41828 66 ft 10 kts 309°
2026-04-17 11:06 61.16342 -45.41838 66 ft 0 kts 309°
2026-04-17 11:08 61.16347 -45.41850 62 ft 5 kts 309°
2026-04-17 11:08 61.16376 -45.41922 72 ft 4 kts 310°
2026-04-17 11:09 61.16395 -45.42000 76 ft 9 kts 237°
2026-04-17 11:09 61.16379 -45.42030 76 ft 19 kts 219°
2026-04-17 11:09 61.16122 -45.42475 120 ft 61 kts 217°
2026-04-17 11:10 61.15526 -45.43344 433 ft 67 kts 214°
2026-04-17 11:10 61.15124 -45.43838 685 ft 68 kts 212°
2026-04-17 11:10 61.14706 -45.44293 930 ft 67 kts 210°
2026-04-17 11:10 61.14275 -45.44687 1143 ft 70 kts 207°
2026-04-17 11:11 61.13878 -45.45201 1395 ft 66 kts 238°
2026-04-17 11:11 61.13829 -45.46123 1639 ft 70 kts 286°
2026-04-17 11:11 61.14225 -45.46757 1884 ft 81 kts 335°
2026-04-17 11:11 61.14809 -45.46490 2116 ft 95 kts 28°
2026-04-17 11:12 61.15316 -45.45531 2451 ft 101 kts 38°
2026-04-17 11:12 61.15849 -45.44594 2804 ft 100 kts 32°
2026-04-17 11:12 61.16422 -45.43828 3136 ft 98 kts 27°
2026-04-17 11:12 61.16996 -45.43028 3411 ft 100 kts 29°
2026-04-17 11:13 61.17551 -45.42173 3702 ft 100 kts 32°
2026-04-17 11:13 61.18095 -45.41289 3983 ft 99 kts 33°
2026-04-17 11:13 61.18637 -45.40389 4248 ft 101 kts 33°
2026-04-17 11:13 61.19190 -45.39477 4492 ft 100 kts 32°
2026-04-17 11:14 61.19745 -45.38586 4722 ft 102 kts 31°
2026-04-17 11:14 61.20308 -45.37696 4978 ft 101 kts 30°
2026-04-17 11:14 61.20865 -45.36821 5228 ft 101 kts 30°
2026-04-17 11:14 61.21426 -45.35937 5487 ft 101 kts 29°
2026-04-17 11:15 61.21995 -45.35068 5733 ft 101 kts 28°
2026-04-17 11:15 61.22557 -45.34203 5974 ft 101 kts 28°
2026-04-17 11:15 61.23120 -45.33326 6189 ft 101 kts 28°
2026-04-17 11:15 61.23685 -45.32449 6407 ft 102 kts 28°
2026-04-17 11:16 61.24249 -45.31572 6628 ft 101 kts 28°
2026-04-17 11:16 61.24814 -45.30698 6803 ft 101 kts 28°
2026-04-17 11:16 61.25384 -45.29820 7010 ft 101 kts 28°
2026-04-17 11:16 61.25946 -45.28934 7240 ft 102 kts 29°
2026-04-17 11:17 61.26510 -45.28036 7472 ft 103 kts 28°
2026-04-17 11:17 61.27079 -45.27136 7710 ft 103 kts 28°
2026-04-17 11:17 61.27649 -45.26243 7941 ft 102 kts 29°
2026-04-17 11:17 61.28218 -45.25357 8163 ft 102 kts 29°
2026-04-17 11:18 61.28789 -45.24459 8388 ft 103 kts 28°
2026-04-17 11:18 61.29369 -45.23555 8594 ft 106 kts 28°
2026-04-17 11:18 61.29951 -45.22643 8828 ft 104 kts 28°
2026-04-17 11:18 61.30535 -45.21732 9030 ft 105 kts 29°
2026-04-17 11:19 61.31113 -45.20822 9251 ft 105 kts 29°
2026-04-17 11:19 61.31699 -45.19901 9453 ft 106 kts 29°
2026-04-17 11:19 61.32284 -45.18967 9656 ft 106 kts 28°
2026-04-17 11:19 61.32879 -45.18051 9840 ft 106 kts 29°
2026-04-17 11:20 61.33469 -45.17158 10019 ft 106 kts 31°
2026-04-17 11:20 61.34060 -45.16227 10206 ft 106 kts 31°
2026-04-17 11:20 61.34644 -45.15316 10376 ft 107 kts 32°
2026-04-17 11:20 61.35235 -45.14393 10556 ft 106 kts 33°
2026-04-17 11:21 61.35820 -45.13484 10726 ft 104 kts 34°
2026-04-17 11:21 61.36401 -45.12572 10901 ft 105 kts 36°
2026-04-17 11:21 61.36982 -45.11651 11068 ft 105 kts 37°
2026-04-17 11:21 61.37565 -45.10726 11224 ft 103 kts 38°
2026-04-17 11:22 61.38115 -45.09831 11384 ft 99 kts 37°
2026-04-17 11:22 61.38665 -45.08955 11525 ft 99 kts 37°
2026-04-17 11:22 61.39209 -45.08101 11673 ft 98 kts 38°
2026-04-17 11:22 61.39747 -45.07262 11810 ft 96 kts 38°
2026-04-17 11:23 61.40287 -45.06424 11963 ft 96 kts 38°
2026-04-17 11:23 61.40824 -45.05575 12096 ft 97 kts 39°
2026-04-17 11:23 61.41357 -45.04741 12234 ft 95 kts 40°
2026-04-17 11:23 61.41887 -45.03906 12370 ft 94 kts 41°
2026-04-17 11:24 61.42403 -45.03072 12488 ft 94 kts 43°
2026-04-17 11:24 61.42920 -45.02223 12611 ft 94 kts 41°
2026-04-17 11:24 61.43450 -45.01370 12688 ft 100 kts 41°
2026-04-17 11:24 61.44028 -45.00422 12669 ft 112 kts 43°
2026-04-17 11:25 61.44663 -44.99362 12655 ft 120 kts 43°
2026-04-17 11:25 61.45335 -44.98258 12657 ft 126 kts 41°
2026-04-17 11:25 61.46058 -44.97128 12645 ft 133 kts 41°
2026-04-17 11:25 61.46800 -44.95955 12640 ft 135 kts 41°
2026-04-17 11:26 61.47547 -44.94788 12620 ft 135 kts 41°
2026-04-17 11:26 61.48300 -44.93608 12621 ft 136 kts 40°
2026-04-17 11:26 61.49060 -44.92423 12622 ft 136 kts 40°
2026-04-17 11:26 61.49816 -44.91238 12623 ft 136 kts 40°
2026-04-17 11:27 61.50570 -44.90053 12619 ft 136 kts 41°
2026-04-17 11:27 61.51320 -44.88847 12619 ft 136 kts 41°
2026-04-17 11:27 61.52072 -44.87647 12619 ft 135 kts 40°
2026-04-17 11:27 61.52826 -44.86470 12621 ft 135 kts 41°
2026-04-17 11:28 61.53575 -44.85254 12625 ft 137 kts 41°
2026-04-17 11:28 61.54331 -44.84023 12623 ft 138 kts 41°
2026-04-17 11:28 61.55089 -44.82813 12622 ft 137 kts 40°
2026-04-17 11:28 61.55838 -44.81621 12622 ft 134 kts 41°
2026-04-17 11:29 61.56578 -44.80413 12619 ft 135 kts 41°
2026-04-17 11:29 61.57323 -44.79203 12620 ft 135 kts 40°
2026-04-17 11:29 61.58071 -44.78018 12595 ft 135 kts 41°
2026-04-17 11:29 61.58819 -44.76843 12595 ft 135 kts 40°
2026-04-17 11:30 61.59569 -44.75661 12597 ft 135 kts 41°
2026-04-17 11:30 61.60315 -44.74465 12592 ft 134 kts 41°
2026-04-17 11:30 61.61050 -44.73305 12593 ft 133 kts 41°
2026-04-17 11:30 61.61788 -44.72116 12592 ft 134 kts 42°
2026-04-17 11:31 61.62516 -44.70892 12592 ft 133 kts 41°
2026-04-17 11:31 61.63236 -44.69745 12592 ft 128 kts 41°
2026-04-17 11:31 61.63964 -44.68706 12594 ft 124 kts 39°
2026-04-17 11:31 61.64657 -44.67568 12594 ft 127 kts 44°
2026-04-17 11:32 61.65339 -44.66326 12592 ft 129 kts 44°
2026-04-17 11:32 61.66032 -44.65136 12590 ft 129 kts 42°
2026-04-17 11:32 61.66731 -44.64003 12589 ft 125 kts 42°
2026-04-17 11:32 61.67434 -44.62894 12588 ft 127 kts 41°
2026-04-17 11:33 61.68159 -44.61778 12551 ft 131 kts 40°
2026-04-17 11:33 61.68870 -44.60662 12553 ft 127 kts 41°
2026-04-17 11:33 61.69561 -44.59566 12553 ft 124 kts 43°
2026-04-17 11:33 61.70246 -44.58433 12553 ft 126 kts 41°
2026-04-17 11:34 61.70956 -44.57310 12554 ft 130 kts 43°
2026-04-17 11:34 61.71641 -44.56136 12555 ft 127 kts 42°
2026-04-17 11:34 61.72329 -44.55037 12553 ft 125 kts 43°
2026-04-17 11:34 61.73012 -44.53931 12554 ft 126 kts 43°
2026-04-17 11:35 61.73701 -44.52734 12553 ft 129 kts 43°
2026-04-17 11:35 61.74384 -44.51561 12555 ft 125 kts 42°
2026-04-17 11:35 61.75079 -44.50478 12553 ft 126 kts 41°
2026-04-17 11:35 61.75777 -44.49359 12555 ft 127 kts 39°
2026-04-17 11:36 61.76510 -44.48261 12554 ft 128 kts 40°
2026-04-17 11:36 61.77214 -44.47133 12554 ft 125 kts 43°
2026-04-17 11:36 61.77895 -44.46003 12512 ft 126 kts 43°
2026-04-17 11:36 61.78577 -44.44822 12513 ft 128 kts 43°
2026-04-17 11:37 61.79268 -44.43619 12511 ft 126 kts 40°
2026-04-17 11:37 61.79987 -44.42549 12513 ft 125 kts 40°
2026-04-17 11:37 61.80678 -44.41461 12512 ft 126 kts 43°
2026-04-17 11:37 61.81366 -44.40301 12513 ft 128 kts 43°
2026-04-17 11:38 61.82044 -44.39112 12513 ft 124 kts 42°
2026-04-17 11:38 61.82737 -44.37988 12513 ft 125 kts 41°
2026-04-17 11:38 61.83430 -44.36896 12513 ft 126 kts 42°
2026-04-17 11:38 61.84125 -44.35754 12513 ft 130 kts 41°
2026-04-17 11:39 61.84828 -44.34588 12513 ft 125 kts 39°
2026-04-17 11:39 61.85547 -44.33523 12513 ft 125 kts 42°
2026-04-17 11:39 61.86228 -44.32356 12512 ft 127 kts 43°
2026-04-17 11:39 61.86905 -44.31147 12512 ft 130 kts 45°
2026-04-17 11:40 61.87584 -44.29963 12465 ft 125 kts 41°
2026-04-17 11:40 61.88279 -44.28937 12462 ft 117 kts 43°
2026-04-17 11:40 61.88941 -44.27874 12462 ft 120 kts 45°
2026-04-17 11:40 61.89608 -44.26784 12462 ft 123 kts 44°
2026-04-17 11:41 61.90284 -44.25697 12460 ft 122 kts 45°
2026-04-17 11:41 61.90946 -44.24612 12461 ft 117 kts 43°
2026-04-17 11:41 61.91595 -44.23527 12459 ft 121 kts 44°
2026-04-17 11:41 61.92249 -44.22377 12460 ft 126 kts 46°
2026-04-17 11:42 61.92909 -44.21213 12460 ft 120 kts 41°
2026-04-17 11:42 61.93589 -44.20161 12461 ft 122 kts 45°
2026-04-17 11:42 61.94249 -44.19082 12461 ft 121 kts 44°
2026-04-17 11:42 61.94917 -44.17986 12462 ft 124 kts 45°
2026-04-17 11:43 61.95576 -44.16826 12459 ft 120 kts 44°
2026-04-17 11:43 61.96261 -44.15813 12461 ft 117 kts 42°
2026-04-17 11:43 61.96908 -44.14717 12460 ft 121 kts 48°
2026-04-17 11:43 61.97523 -44.13511 12412 ft 122 kts 46°
2026-04-17 11:44 61.98196 -44.12413 12412 ft 121 kts 42°
2026-04-17 11:44 61.98854 -44.11310 12414 ft 117 kts 45°
2026-04-17 11:44 61.99506 -44.10257 12414 ft 121 kts 43°
2026-04-17 11:44 62.00182 -44.09177 12415 ft 125 kts 43°
2026-04-17 11:45 62.00858 -44.08067 12413 ft 119 kts 45°
2026-04-17 11:45 62.01531 -44.07014 12413 ft 119 kts 45°
2026-04-17 11:45 62.02173 -44.05898 12412 ft 121 kts 45°
2026-04-17 11:45 62.02833 -44.04816 12411 ft 123 kts 42°
2026-04-17 11:46 62.03517 -44.03744 12411 ft 121 kts 43°
2026-04-17 11:46 62.04196 -44.02695 12414 ft 117 kts 44°
2026-04-17 11:46 62.04825 -44.01571 12412 ft 121 kts 45°
2026-04-17 11:46 62.05456 -44.00389 12412 ft 120 kts 47°
2026-04-17 11:47 62.06105 -43.99242 12412 ft 119 kts 44°
2026-04-17 11:47 62.06777 -43.98178 12412 ft 118 kts 47°
2026-04-17 11:47 62.07412 -43.97098 12412 ft 120 kts 45°
2026-04-17 11:47 62.08053 -43.95968 12374 ft 123 kts 43°
2026-04-17 11:48 62.08741 -43.94891 12372 ft 120 kts 41°
2026-04-17 11:48 62.09435 -43.93871 12373 ft 120 kts 42°
2026-04-17 11:48 62.10107 -43.92835 12367 ft 121 kts 43°
2026-04-17 11:48 62.10757 -43.91723 12368 ft 122 kts 46°
2026-04-17 11:49 62.11395 -43.90511 12366 ft 119 kts 46°
2026-04-17 11:49 62.12031 -43.89372 12366 ft 116 kts 45°
2026-04-17 11:49 62.12678 -43.88321 12363 ft 122 kts 46°
2026-04-17 11:49 62.13348 -43.87166 12366 ft 125 kts 45°
2026-04-17 11:50 62.14034 -43.86002 12368 ft 126 kts 45°
2026-04-17 11:50 62.14729 -43.84848 12368 ft 127 kts 44°
2026-04-17 11:50 62.15423 -43.83688 12368 ft 126 kts 45°
2026-04-17 11:50 62.16109 -43.82520 12367 ft 126 kts 45°
2026-04-17 11:51 62.16795 -43.81353 12367 ft 126 kts 45°
2026-04-17 11:51 62.17481 -43.80194 12343 ft 126 kts 44°
2026-04-17 11:51 62.18161 -43.79054 12342 ft 126 kts 44°
2026-04-17 11:51 62.18851 -43.77910 12342 ft 125 kts 44°
2026-04-17 11:52 62.19541 -43.76766 12342 ft 126 kts 44°
2026-04-17 11:52 62.20231 -43.75582 12342 ft 125 kts 44°
2026-04-17 11:52 62.20903 -43.74448 12342 ft 125 kts 45°
2026-04-17 11:52 62.21585 -43.73297 12343 ft 125 kts 44°
2026-04-17 11:53 62.22273 -43.72151 12343 ft 125 kts 45°
2026-04-17 11:53 62.22951 -43.70979 12342 ft 125 kts 45°
2026-04-17 11:53 62.23623 -43.69806 12342 ft 124 kts 45°
2026-04-17 11:53 62.24300 -43.68647 12343 ft 125 kts 44°
2026-04-17 11:54 62.24983 -43.67487 12340 ft 125 kts 44°
2026-04-17 11:54 62.25675 -43.66347 12340 ft 126 kts 44°
2026-04-17 11:54 62.26361 -43.65184 12340 ft 126 kts 45°
2026-04-17 11:54 62.27046 -43.64017 12340 ft 126 kts 45°
2026-04-17 11:55 62.27732 -43.62849 12323 ft 126 kts 45°
2026-04-17 11:55 62.28416 -43.61676 12323 ft 126 kts 45°
2026-04-17 11:55 62.29100 -43.60497 12324 ft 126 kts 45°
2026-04-17 11:55 62.29790 -43.59322 12324 ft 127 kts 44°
2026-04-17 11:56 62.30481 -43.58149 12323 ft 126 kts 44°
2026-04-17 11:56 62.31164 -43.56950 12323 ft 127 kts 46°
2026-04-17 11:56 62.31857 -43.55761 12323 ft 128 kts 44°
2026-04-17 11:56 62.32559 -43.54589 12323 ft 128 kts 45°
2026-04-17 11:57 62.33253 -43.53413 12323 ft 127 kts 45°
2026-04-17 11:57 62.33929 -43.52239 12323 ft 126 kts 44°
2026-04-17 11:57 62.34624 -43.51076 12322 ft 127 kts 44°
2026-04-17 11:57 62.35324 -43.49902 12316 ft 129 kts 44°
2026-04-17 11:58 62.36032 -43.48709 12322 ft 130 kts 45°
2026-04-17 11:58 62.36734 -43.47487 12323 ft 130 kts 45°
2026-04-17 11:58 62.37438 -43.46256 12324 ft 130 kts 45°
2026-04-17 11:58 62.38149 -43.45009 12305 ft 133 kts 45°
2026-04-17 11:59 62.38870 -43.43754 12308 ft 133 kts 45°
2026-04-17 11:59 62.39594 -43.42509 12309 ft 133 kts 44°
2026-04-17 11:59 62.40317 -43.41271 12309 ft 133 kts 45°
2026-04-17 11:59 62.41039 -43.40030 12309 ft 133 kts 45°
2026-04-17 12:00 62.41761 -43.38792 12310 ft 132 kts 45°
2026-04-17 12:00 62.42478 -43.37556 12310 ft 131 kts 45°
2026-04-17 12:00 62.43198 -43.36299 12311 ft 134 kts 45°
2026-04-17 12:00 62.43925 -43.35055 12313 ft 133 kts 45°
2026-04-17 12:01 62.44652 -43.33804 12312 ft 134 kts 45°
2026-04-17 12:01 62.45378 -43.32536 12310 ft 134 kts 45°
2026-04-17 12:01 62.46107 -43.31284 12309 ft 134 kts 45°
2026-04-17 12:01 62.46834 -43.30025 12309 ft 134 kts 45°
2026-04-17 12:02 62.47552 -43.28782 12298 ft 134 kts 45°
2026-04-17 12:02 62.48276 -43.27525 12298 ft 133 kts 45°
2026-04-17 12:02 62.48999 -43.26269 12299 ft 133 kts 45°
2026-04-17 12:02 62.49721 -43.25018 12296 ft 133 kts 45°
2026-04-17 12:03 62.50440 -43.23770 12299 ft 133 kts 45°
2026-04-17 12:03 62.51158 -43.22490 12305 ft 134 kts 47°
2026-04-17 12:03 62.51893 -43.21172 12176 ft 139 kts 44°
2026-04-17 12:03 62.52652 -43.19838 12101 ft 144 kts 45°
2026-04-17 12:04 62.53182 -43.18906 12020 ft 146 kts 44°
2026-04-17 12:04 62.53986 -43.17534 11919 ft 148 kts 44°
2026-04-17 12:04 62.54803 -43.16132 11804 ft 150 kts 44°
2026-04-17 12:04 62.55618 -43.14727 11718 ft 151 kts 43°
2026-04-17 12:05 62.56449 -43.13288 11558 ft 155 kts 44°
2026-04-17 12:05 62.57284 -43.11804 11462 ft 152 kts 44°
2026-04-17 12:05 62.58101 -43.10384 11327 ft 151 kts 46°
2026-04-17 12:05 62.58906 -43.08900 11157 ft 150 kts 46°
2026-04-17 12:06 62.59701 -43.07457 11030 ft 150 kts 42°
2026-04-17 12:06 62.60532 -43.06102 10900 ft 150 kts 42°
2026-04-17 12:06 62.61357 -43.04703 10761 ft 150 kts 43°
2026-04-17 12:06 62.62176 -43.03296 10632 ft 150 kts 43°
2026-04-17 12:07 62.62999 -43.01879 10475 ft 153 kts 44°
2026-04-17 12:07 62.63838 -43.00433 10327 ft 153 kts 45°
2026-04-17 12:07 62.64645 -42.99002 10311 ft 146 kts 45°
2026-04-17 12:07 62.65418 -42.97621 10313 ft 140 kts 45°
2026-04-17 12:08 62.66166 -42.96284 10292 ft 138 kts 46°
2026-04-17 12:08 62.66906 -42.94961 10296 ft 137 kts 46°
2026-04-17 12:08 62.67645 -42.93648 10286 ft 137 kts 45°
2026-04-17 12:08 62.68379 -42.92347 10285 ft 136 kts 45°
2026-04-17 12:09 62.69107 -42.91056 10285 ft 135 kts 45°
2026-04-17 12:09 62.69831 -42.89774 10284 ft 134 kts 45°
2026-04-17 12:09 62.70552 -42.88496 10281 ft 133 kts 46°
2026-04-17 12:09 62.71270 -42.87225 10286 ft 133 kts 45°
2026-04-17 12:10 62.71981 -42.85967 10294 ft 132 kts 45°
2026-04-17 12:10 62.72699 -42.84703 10296 ft 133 kts 45°
2026-04-17 12:10 62.73416 -42.83419 10298 ft 134 kts 46°
2026-04-17 12:10 62.74131 -42.82122 10305 ft 136 kts 46°
2026-04-17 12:11 62.74869 -42.80814 10287 ft 137 kts 45°
2026-04-17 12:11 62.75624 -42.79536 10293 ft 138 kts 45°
2026-04-17 12:11 62.76363 -42.78196 10297 ft 138 kts 45°
2026-04-17 12:12 62.77840 -42.75549 10297 ft 137 kts 45°
2026-04-17 12:12 62.78581 -42.74237 10294 ft 137 kts 45°
2026-04-17 12:12 62.79317 -42.72925 10292 ft 136 kts 46°
2026-04-17 12:12 62.80049 -42.71624 10286 ft 135 kts 46°
2026-04-17 12:13 62.80776 -42.70310 10292 ft 136 kts 46°
2026-04-17 12:13 62.81504 -42.69004 10297 ft 135 kts 45°
2026-04-17 12:13 62.82228 -42.67697 10291 ft 135 kts 46°
2026-04-17 12:13 62.82951 -42.66422 10294 ft 133 kts 45°
2026-04-17 12:14 62.83675 -42.65144 10294 ft 135 kts 45°
2026-04-17 12:14 62.84401 -42.63835 10299 ft 135 kts 45°
2026-04-17 12:14 62.85122 -42.62539 10293 ft 136 kts 46°
2026-04-17 12:14 62.85851 -42.61220 10297 ft 136 kts 46°
2026-04-17 12:15 62.86580 -42.59909 10293 ft 135 kts 45°
2026-04-17 12:15 62.87306 -42.58613 10295 ft 135 kts 46°
2026-04-17 12:15 62.88033 -42.57319 10296 ft 135 kts 45°
2026-04-17 12:15 62.88759 -42.56015 10300 ft 135 kts 46°
2026-04-17 12:16 62.89483 -42.54696 10304 ft 136 kts 46°
2026-04-17 12:16 62.90206 -42.53390 10298 ft 132 kts 45°
2026-04-17 12:16 62.90925 -42.52111 10303 ft 133 kts 46°
2026-04-17 12:16 62.91646 -42.50813 10307 ft 136 kts 45°
2026-04-17 12:17 62.92388 -42.49487 10305 ft 138 kts 45°
2026-04-17 12:17 62.93125 -42.48150 10307 ft 137 kts 46°
2026-04-17 12:17 62.93852 -42.46816 10298 ft 136 kts 46°
2026-04-17 12:17 62.94573 -42.45493 10295 ft 134 kts 46°
2026-04-17 12:18 62.95288 -42.44202 10296 ft 133 kts 45°
2026-04-17 12:18 62.96003 -42.42923 10289 ft 132 kts 46°
2026-04-17 12:18 62.96708 -42.41653 10299 ft 130 kts 46°
2026-04-17 12:18 62.97419 -42.40407 10312 ft 131 kts 45°
2026-04-17 12:19 62.98134 -42.39115 10308 ft 136 kts 47°
2026-04-17 12:19 62.98853 -42.37779 10315 ft 135 kts 46°
2026-04-17 12:19 62.99556 -42.36472 10311 ft 134 kts 47°
2026-04-17 12:19 63.00266 -42.35161 10318 ft 135 kts 45°
2026-04-17 12:20 63.00995 -42.33837 10309 ft 135 kts 46°
2026-04-17 12:20 63.01720 -42.32537 10312 ft 134 kts 45°
2026-04-17 12:20 63.02454 -42.31231 10304 ft 137 kts 45°
2026-04-17 12:20 63.03189 -42.29913 10312 ft 135 kts 46°
2026-04-17 12:21 63.03906 -42.28578 10313 ft 135 kts 47°
2026-04-17 12:21 63.04622 -42.27252 10300 ft 134 kts 46°
2026-04-17 12:21 63.05334 -42.25952 10313 ft 132 kts 47°
2026-04-17 12:21 63.06051 -42.24653 10312 ft 134 kts 46°
2026-04-17 12:22 63.06766 -42.23341 10310 ft 133 kts 46°
2026-04-17 12:22 63.07470 -42.22041 10314 ft 132 kts 46°
2026-04-17 12:22 63.08186 -42.20750 10317 ft 133 kts 46°
2026-04-17 12:22 63.08893 -42.19423 10317 ft 133 kts 46°
2026-04-17 12:23 63.09604 -42.18119 10316 ft 133 kts 46°
2026-04-17 12:23 63.10317 -42.16819 10324 ft 133 kts 46°
2026-04-17 12:23 63.11029 -42.15520 10324 ft 133 kts 46°
2026-04-17 12:23 63.11738 -42.14215 10325 ft 133 kts 46°
2026-04-17 12:24 63.12453 -42.12917 10320 ft 133 kts 46°
2026-04-17 12:24 63.13166 -42.11611 10325 ft 133 kts 46°
2026-04-17 12:24 63.13875 -42.10297 10321 ft 133 kts 46°
2026-04-17 12:24 63.14583 -42.08987 10324 ft 133 kts 46°
2026-04-17 12:25 63.15292 -42.07679 10323 ft 132 kts 46°
2026-04-17 12:25 63.15999 -42.06378 10324 ft 132 kts 46°
2026-04-17 12:25 63.16706 -42.05074 10323 ft 132 kts 46°
2026-04-17 12:25 63.17415 -42.03774 10334 ft 133 kts 46°
2026-04-17 12:26 63.18113 -42.02491 10320 ft 130 kts 46°
2026-04-17 12:26 63.18816 -42.01200 10330 ft 133 kts 46°
2026-04-17 12:26 63.19524 -41.99872 10333 ft 133 kts 47°
2026-04-17 12:26 63.20229 -41.98554 10320 ft 131 kts 47°
2026-04-17 12:27 63.20926 -41.97250 10332 ft 132 kts 46°
2026-04-17 12:27 63.21641 -41.95952 10334 ft 133 kts 46°
2026-04-17 12:27 63.22348 -41.94640 10334 ft 132 kts 47°
2026-04-17 12:27 63.23050 -41.93325 10333 ft 132 kts 47°
2026-04-17 12:28 63.23750 -41.92015 10332 ft 132 kts 47°
2026-04-17 12:28 63.24453 -41.90700 10338 ft 133 kts 46°
2026-04-17 12:28 63.25170 -41.89358 10335 ft 135 kts 46°
2026-04-17 12:28 63.25890 -41.88034 10334 ft 134 kts 46°
2026-04-17 12:29 63.26606 -41.86714 10334 ft 134 kts 46°
2026-04-17 12:29 63.27319 -41.85391 10332 ft 133 kts 46°
2026-04-17 12:29 63.28015 -41.84086 10328 ft 132 kts 47°
2026-04-17 12:29 63.28716 -41.82772 10331 ft 132 kts 46°
2026-04-17 12:30 63.29422 -41.81459 10334 ft 132 kts 46°
2026-04-17 12:30 63.30127 -41.80142 10335 ft 133 kts 46°
2026-04-17 12:30 63.30836 -41.78820 10338 ft 133 kts 46°
2026-04-17 12:30 63.31555 -41.77482 10339 ft 135 kts 46°
2026-04-17 12:31 63.32270 -41.76147 10324 ft 134 kts 47°
2026-04-17 12:31 63.32981 -41.74809 10329 ft 134 kts 47°
2026-04-17 12:31 63.33688 -41.73478 10318 ft 133 kts 47°
2026-04-17 12:31 63.34390 -41.72149 10334 ft 133 kts 46°
2026-04-17 12:32 63.35099 -41.70815 10330 ft 133 kts 47°
2026-04-17 12:32 63.35805 -41.69489 10325 ft 132 kts 46°
2026-04-17 12:32 63.36511 -41.68174 10316 ft 132 kts 46°
2026-04-17 12:32 63.37212 -41.66873 10327 ft 131 kts 47°
2026-04-17 12:33 63.37908 -41.65561 10332 ft 131 kts 47°
2026-04-17 12:33 63.38617 -41.64234 10337 ft 134 kts 47°
2026-04-17 12:33 63.39324 -41.62891 10338 ft 133 kts 47°
2026-04-17 12:33 63.40028 -41.61552 10335 ft 132 kts 47°
2026-04-17 12:34 63.40728 -41.60234 10335 ft 131 kts 47°
2026-04-17 12:34 63.41411 -41.58940 10335 ft 131 kts 47°
2026-04-17 12:34 63.42107 -41.57622 10335 ft 131 kts 47°
2026-04-17 12:34 63.42804 -41.56301 10335 ft 131 kts 47°
2026-04-17 12:35 63.43495 -41.54987 10334 ft 130 kts 47°
2026-04-17 12:35 63.44189 -41.53683 10334 ft 131 kts 47°
2026-04-17 12:35 63.44888 -41.52366 10337 ft 132 kts 47°
2026-04-17 12:35 63.45590 -41.51030 10338 ft 133 kts 47°
2026-04-17 12:37 63.50480 -41.41726 10340 ft 131 kts 47°
2026-04-17 12:37 63.51204 -41.40344 10211 ft 142 kts 47°
2026-04-17 12:38 63.51962 -41.38895 10146 ft 144 kts 47°
2026-04-17 12:38 63.52741 -41.37382 9944 ft 152 kts 47°
2026-04-17 12:38 63.53548 -41.35840 9837 ft 151 kts 46°
2026-04-17 12:38 63.54349 -41.34316 9738 ft 153 kts 46°
2026-04-17 12:39 63.55141 -41.32782 9651 ft 152 kts 46°
2026-04-17 12:39 63.55980 -41.31254 9455 ft 159 kts 45°
2026-04-17 12:39 63.56800 -41.29671 9351 ft 155 kts 47°
2026-04-17 12:39 63.57600 -41.28111 9274 ft 150 kts 46°
2026-04-17 12:40 63.58410 -41.26555 9000 ft 156 kts 45°
2026-04-17 12:40 63.59235 -41.24983 8812 ft 155 kts 46°
2026-04-17 12:40 63.60059 -41.23427 8646 ft 155 kts 43°
2026-04-17 12:40 63.60890 -41.21859 8467 ft 157 kts 45°
2026-04-17 12:41 63.61682 -41.20243 8393 ft 150 kts 46°
2026-04-17 12:41 63.62455 -41.18713 8358 ft 147 kts 45°
2026-04-17 12:41 63.63231 -41.17257 8357 ft 144 kts 45°
2026-04-17 12:41 63.63998 -41.15789 8372 ft 145 kts 46°
2026-04-17 12:42 63.64764 -41.14297 8371 ft 146 kts 46°
2026-04-17 12:42 63.65540 -41.12790 8367 ft 148 kts 46°
2026-04-17 12:42 63.66322 -41.11281 8364 ft 148 kts 46°
2026-04-17 12:42 63.67109 -41.09769 8374 ft 149 kts 46°
2026-04-17 12:43 63.67895 -41.08246 8372 ft 149 kts 46°
2026-04-17 12:43 63.68680 -41.06709 8373 ft 150 kts 46°
2026-04-17 12:43 63.69471 -41.05183 8372 ft 150 kts 46°
2026-04-17 12:43 63.70263 -41.03656 8372 ft 150 kts 46°
2026-04-17 12:44 63.71055 -41.02126 8372 ft 150 kts 46°
2026-04-17 12:44 63.71847 -41.00601 8372 ft 150 kts 46°
2026-04-17 12:44 63.72637 -40.99068 8372 ft 150 kts 46°
2026-04-17 12:44 63.73425 -40.97525 8373 ft 150 kts 46°
2026-04-17 12:45 63.74221 -40.95979 8373 ft 151 kts 46°
2026-04-17 12:45 63.75012 -40.94443 8372 ft 150 kts 46°
2026-04-17 12:45 63.75798 -40.92888 8372 ft 150 kts 47°
2026-04-17 12:45 63.76585 -40.91334 8372 ft 150 kts 46°
2026-04-17 12:46 63.77378 -40.89787 8382 ft 151 kts 46°
2026-04-17 12:46 63.78173 -40.88236 8383 ft 151 kts 46°
2026-04-17 12:46 63.78964 -40.86689 8383 ft 150 kts 46°
2026-04-17 12:46 63.79758 -40.85137 8383 ft 151 kts 46°
2026-04-17 12:47 63.80550 -40.83584 8383 ft 151 kts 46°
2026-04-17 12:47 63.81340 -40.82026 8383 ft 151 kts 46°
2026-04-17 12:47 63.82135 -40.80473 8383 ft 151 kts 46°
2026-04-17 12:47 63.82931 -40.78923 8383 ft 151 kts 46°
2026-04-17 12:48 63.83720 -40.77362 8383 ft 150 kts 46°
2026-04-17 12:48 63.84507 -40.75809 8382 ft 150 kts 46°
2026-04-17 12:48 63.85291 -40.74268 8381 ft 148 kts 46°
2026-04-17 12:48 63.86070 -40.72740 8382 ft 149 kts 46°
2026-04-17 12:49 63.86852 -40.71212 8358 ft 148 kts 46°
2026-04-17 12:49 63.87625 -40.69684 8382 ft 147 kts 47°
2026-04-17 12:49 63.88383 -40.68176 8385 ft 147 kts 47°
2026-04-17 12:49 63.89152 -40.66644 8386 ft 147 kts 47°
2026-04-17 12:50 63.89919 -40.65120 8387 ft 146 kts 47°
2026-04-17 12:50 63.90692 -40.63587 8388 ft 149 kts 47°
2026-04-17 12:50 63.91472 -40.62038 8388 ft 149 kts 47°
2026-04-17 12:50 63.92259 -40.60495 8387 ft 149 kts 46°
2026-04-17 12:51 63.93043 -40.58942 8388 ft 149 kts 47°
2026-04-17 12:51 63.93824 -40.57384 8388 ft 149 kts 47°
2026-04-17 12:51 63.94605 -40.55823 8388 ft 150 kts 47°
2026-04-17 12:51 63.95387 -40.54263 8387 ft 150 kts 47°
2026-04-17 12:52 63.96180 -40.52685 8386 ft 149 kts 47°
2026-04-17 12:52 63.96951 -40.51147 8391 ft 149 kts 47°
2026-04-17 12:52 63.97731 -40.49593 8391 ft 149 kts 47°
2026-04-17 12:52 63.98512 -40.48038 8392 ft 149 kts 47°
2026-04-17 12:53 63.99290 -40.46478 8392 ft 149 kts 47°
2026-04-17 12:53 64.00068 -40.44922 8392 ft 149 kts 47°
2026-04-17 12:53 64.00846 -40.43369 8391 ft 149 kts 47°
2026-04-17 12:53 64.01625 -40.41813 8392 ft 149 kts 47°
2026-04-17 12:54 64.02401 -40.40255 8392 ft 149 kts 47°
2026-04-17 12:54 64.03175 -40.38700 8391 ft 149 kts 47°
2026-04-17 12:54 64.03952 -40.37142 8392 ft 149 kts 47°
2026-04-17 12:54 64.04728 -40.35583 8391 ft 148 kts 47°
2026-04-17 12:55 64.05503 -40.34027 8393 ft 148 kts 47°
2026-04-17 12:55 64.06278 -40.32470 8387 ft 148 kts 47°
2026-04-17 12:55 64.07052 -40.30913 8398 ft 148 kts 47°
2026-04-17 12:55 64.07825 -40.29355 8398 ft 148 kts 47°
2026-04-17 12:56 64.08336 -40.28324 8396 ft 148 kts 47°
2026-04-17 12:56 64.09370 -40.26238 8408 ft 148 kts 47°
2026-04-17 12:56 64.09880 -40.25206 8408 ft 148 kts 47°
2026-04-17 12:56 64.10653 -40.23644 8408 ft 148 kts 47°
2026-04-17 12:57 64.11424 -40.22083 8409 ft 148 kts 47°
2026-04-17 12:57 64.12201 -40.20517 8402 ft 149 kts 46°
2026-04-17 12:57 64.13030 -40.19074 8406 ft 150 kts 41°
2026-04-17 12:57 64.14152 -40.17206 8408 ft 151 kts 41°
2026-04-17 12:58 64.15005 -40.15795 8408 ft 151 kts 41°
2026-04-17 12:58 64.15584 -40.14840 8409 ft 152 kts 41°
2026-04-17 12:58 64.16441 -40.13425 8409 ft 152 kts 41°
2026-04-17 12:58 64.17297 -40.12008 8411 ft 152 kts 41°
2026-04-17 12:59 64.18155 -40.10585 8411 ft 152 kts 41°
2026-04-17 12:59 64.19010 -40.09165 8411 ft 152 kts 41°
2026-04-17 12:59 64.19855 -40.07757 8411 ft 152 kts 41°
2026-04-17 12:59 64.20711 -40.06329 8411 ft 152 kts 41°
2026-04-17 13:00 64.21565 -40.04901 8411 ft 151 kts 42°
2026-04-17 13:00 64.22412 -40.03468 8413 ft 151 kts 42°
2026-04-17 13:00 64.23264 -40.02042 8413 ft 152 kts 41°
2026-04-17 13:00 64.24120 -40.00619 8413 ft 152 kts 41°
2026-04-17 13:01 64.24974 -39.99192 8413 ft 152 kts 42°
2026-04-17 13:01 64.25828 -39.97756 8411 ft 152 kts 42°
2026-04-17 13:01 64.26682 -39.96322 8411 ft 152 kts 42°
2026-04-17 13:01 64.27535 -39.94887 8411 ft 152 kts 42°
2026-04-17 13:02 64.28388 -39.93452 8419 ft 152 kts 42°
2026-04-17 13:02 64.29239 -39.92018 8419 ft 152 kts 42°
2026-04-17 13:02 64.30091 -39.90583 8419 ft 152 kts 42°
2026-04-17 13:02 64.30941 -39.89147 8419 ft 152 kts 42°
2026-04-17 13:03 64.31793 -39.87708 8419 ft 152 kts 42°
2026-04-17 13:03 64.32643 -39.86268 8419 ft 152 kts 42°
2026-04-17 13:03 64.33494 -39.84831 8419 ft 152 kts 42°
2026-04-17 13:03 64.34345 -39.83389 8419 ft 152 kts 42°
2026-04-17 13:04 64.35196 -39.81952 8419 ft 152 kts 42°
2026-04-17 13:04 64.36036 -39.80532 8419 ft 152 kts 42°
2026-04-17 13:04 64.36885 -39.79092 8419 ft 152 kts 42°
2026-04-17 13:04 64.37735 -39.77647 8419 ft 152 kts 42°
2026-04-17 13:05 64.38585 -39.76204 8397 ft 152 kts 42°
2026-04-17 13:05 64.39440 -39.74769 8422 ft 152 kts 42°
2026-04-17 13:05 64.40293 -39.73320 8426 ft 152 kts 43°
2026-04-17 13:05 64.41146 -39.71861 8427 ft 152 kts 43°
2026-04-17 13:06 64.41999 -39.70402 8428 ft 153 kts 43°
2026-04-17 13:06 64.42854 -39.68935 8428 ft 153 kts 43°
2026-04-17 13:06 64.43710 -39.67472 8428 ft 153 kts 43°
2026-04-17 13:06 64.44567 -39.66011 8428 ft 153 kts 43°
2026-04-17 13:07 64.45424 -39.64544 8428 ft 153 kts 43°
2026-04-17 13:07 64.46279 -39.63079 8433 ft 153 kts 43°
2026-04-17 13:07 64.47136 -39.61612 8433 ft 153 kts 43°
2026-04-17 13:07 64.47992 -39.60145 8433 ft 153 kts 43°
2026-04-17 13:08 64.48849 -39.58676 8432 ft 153 kts 43°
2026-04-17 13:08 64.49706 -39.57207 8438 ft 153 kts 43°
2026-04-17 13:08 64.50562 -39.55738 8439 ft 153 kts 43°
2026-04-17 13:08 64.51417 -39.54267 8439 ft 153 kts 43°
2026-04-17 13:09 64.52272 -39.52793 8438 ft 153 kts 43°
2026-04-17 13:09 64.53127 -39.51322 8439 ft 153 kts 43°
2026-04-17 13:09 64.53983 -39.49849 8438 ft 153 kts 43°
2026-04-17 13:09 64.54840 -39.48373 8438 ft 153 kts 43°
2026-04-17 13:10 64.55694 -39.46899 8441 ft 153 kts 43°
2026-04-17 13:10 64.56548 -39.45423 8441 ft 153 kts 43°
2026-04-17 13:10 64.57403 -39.43945 8441 ft 153 kts 43°
2026-04-17 13:10 64.58246 -39.42487 8441 ft 153 kts 43°
2026-04-17 13:11 64.59100 -39.41009 8438 ft 153 kts 43°
2026-04-17 13:11 64.59954 -39.39530 8439 ft 153 kts 43°
2026-04-17 13:11 64.60808 -39.38047 8447 ft 153 kts 43°
2026-04-17 13:11 64.61661 -39.36563 8447 ft 153 kts 43°
2026-04-17 13:12 64.62515 -39.35084 8450 ft 153 kts 43°
2026-04-17 13:12 64.64213 -39.32129 8447 ft 148 kts 44°
2026-04-17 13:12 64.65029 -39.30704 8448 ft 146 kts 44°
2026-04-17 13:13 64.65846 -39.29325 8428 ft 142 kts 44°
2026-04-17 13:13 64.66647 -39.28000 8443 ft 141 kts 46°
2026-04-17 13:13 64.67430 -39.26640 8446 ft 140 kts 46°
2026-04-17 13:13 64.68208 -39.25260 8447 ft 140 kts 47°
2026-04-17 13:14 64.68983 -39.23876 8449 ft 140 kts 47°
2026-04-17 13:14 64.69761 -39.22493 8449 ft 141 kts 47°
2026-04-17 13:14 64.70541 -39.21110 8450 ft 141 kts 46°
2026-04-17 13:14 64.71322 -39.19727 8458 ft 141 kts 46°
2026-04-17 13:15 64.72104 -39.18350 8455 ft 141 kts 46°
2026-04-17 13:15 64.72888 -39.16973 8455 ft 141 kts 46°
2026-04-17 13:15 64.73671 -39.15597 8455 ft 141 kts 46°
2026-04-17 13:15 64.74454 -39.14217 8455 ft 141 kts 46°
2026-04-17 13:16 64.75237 -39.12837 8458 ft 141 kts 46°
2026-04-17 13:16 64.76021 -39.11458 8458 ft 141 kts 46°
2026-04-17 13:16 64.76806 -39.10079 8458 ft 141 kts 46°
2026-04-17 13:16 64.77591 -39.08700 8458 ft 141 kts 46°
2026-04-17 13:17 64.78375 -39.07317 8457 ft 141 kts 46°
2026-04-17 13:17 64.79159 -39.05932 8456 ft 141 kts 46°
2026-04-17 13:17 64.79943 -39.04545 8455 ft 141 kts 46°
2026-04-17 13:17 64.80726 -39.03158 8455 ft 141 kts 46°
2026-04-17 13:18 64.81510 -39.01774 8458 ft 141 kts 46°
2026-04-17 13:18 64.82295 -39.00385 8466 ft 141 kts 46°
2026-04-17 13:18 64.83081 -38.98995 8466 ft 141 kts 46°
2026-04-17 13:18 64.83864 -38.97608 8466 ft 141 kts 46°
2026-04-17 13:19 64.84648 -38.96218 8465 ft 141 kts 46°
2026-04-17 13:19 64.85429 -38.94829 8466 ft 141 kts 46°
2026-04-17 13:19 64.86211 -38.93442 8466 ft 141 kts 46°
2026-04-17 13:19 64.86993 -38.92053 8466 ft 141 kts 46°
2026-04-17 13:20 64.87774 -38.90665 8468 ft 141 kts 46°
2026-04-17 13:20 64.88555 -38.89273 8466 ft 141 kts 46°
2026-04-17 13:20 64.89336 -38.87879 8466 ft 141 kts 47°
2026-04-17 13:20 64.90118 -38.86482 8466 ft 141 kts 46°
2026-04-17 13:21 64.90898 -38.85089 8467 ft 141 kts 46°
2026-04-17 13:21 64.91679 -38.83694 8466 ft 141 kts 46°
2026-04-17 13:21 64.92459 -38.82299 8466 ft 141 kts 46°
2026-04-17 13:21 64.93242 -38.80925 8468 ft 140 kts 47°
2026-04-17 13:22 64.94019 -38.79546 8467 ft 140 kts 47°
2026-04-17 13:22 64.94793 -38.78153 8469 ft 140 kts 48°
2026-04-17 13:22 64.95557 -38.76773 8482 ft 140 kts 47°
2026-04-17 13:22 64.96332 -38.75379 8476 ft 140 kts 47°
2026-04-17 13:23 64.97109 -38.73983 8471 ft 140 kts 47°
2026-04-17 13:23 64.97885 -38.72586 8470 ft 140 kts 47°
2026-04-17 13:23 64.98663 -38.71189 8470 ft 141 kts 47°
2026-04-17 13:23 64.99442 -38.69784 8470 ft 141 kts 48°
2026-04-17 13:24 65.00217 -38.68376 8472 ft 141 kts 48°
2026-04-17 13:24 65.00994 -38.66972 8473 ft 141 kts 47°
2026-04-17 13:24 65.01772 -38.65570 8472 ft 141 kts 47°
2026-04-17 13:24 65.02552 -38.64168 8472 ft 141 kts 47°
2026-04-17 13:25 65.03330 -38.62759 8479 ft 141 kts 48°
2026-04-17 13:25 65.04106 -38.61353 8480 ft 141 kts 47°
2026-04-17 13:25 65.04883 -38.59950 8481 ft 141 kts 47°
2026-04-17 13:25 65.05663 -38.58547 8493 ft 141 kts 47°
2026-04-17 13:26 65.06441 -38.57144 8485 ft 141 kts 47°
2026-04-17 13:26 65.07219 -38.55736 8478 ft 141 kts 47°
2026-04-17 13:26 65.07995 -38.54325 8492 ft 141 kts 48°
2026-04-17 13:26 65.08769 -38.52911 8478 ft 141 kts 48°
2026-04-17 13:27 65.09545 -38.51500 8478 ft 141 kts 47°
2026-04-17 13:27 65.10321 -38.50090 8478 ft 141 kts 47°
2026-04-17 13:27 65.11097 -38.48679 8478 ft 140 kts 47°
2026-04-17 13:27 65.11872 -38.47272 8482 ft 140 kts 47°
2026-04-17 13:28 65.12646 -38.45858 8493 ft 140 kts 48°
2026-04-17 13:28 65.13417 -38.44443 8481 ft 140 kts 48°
2026-04-17 13:28 65.14191 -38.43031 8487 ft 140 kts 47°
2026-04-17 13:28 65.14967 -38.41618 8489 ft 141 kts 47°
2026-04-17 13:29 65.15742 -38.40205 8487 ft 140 kts 47°
2026-04-17 13:29 65.16516 -38.38792 8487 ft 140 kts 48°
2026-04-17 13:29 65.17290 -38.37378 8493 ft 140 kts 48°
2026-04-17 13:29 65.18064 -38.35960 8492 ft 140 kts 48°
2026-04-17 13:30 65.18838 -38.34544 8493 ft 140 kts 48°
2026-04-17 13:30 65.19609 -38.33122 8464 ft 141 kts 48°
2026-04-17 13:30 65.20371 -38.31705 8491 ft 141 kts 47°
2026-04-17 13:30 65.21147 -38.30275 8495 ft 141 kts 47°
2026-04-17 13:31 65.21928 -38.28846 8494 ft 142 kts 47°
2026-04-17 13:31 65.22712 -38.27411 8495 ft 142 kts 47°
2026-04-17 13:31 65.23496 -38.25971 8495 ft 142 kts 47°
2026-04-17 13:31 65.24279 -38.24518 8494 ft 143 kts 47°
2026-04-17 13:32 65.25063 -38.23069 8497 ft 143 kts 47°
2026-04-17 13:32 65.25848 -38.21619 8497 ft 143 kts 47°
2026-04-17 13:32 65.26635 -38.20168 8497 ft 143 kts 47°
2026-04-17 13:32 65.27422 -38.18718 8497 ft 143 kts 47°
2026-04-17 13:33 65.28211 -38.17258 8497 ft 143 kts 47°
2026-04-17 13:33 65.28998 -38.15801 8497 ft 143 kts 47°
2026-04-17 13:33 65.29784 -38.14346 8497 ft 143 kts 47°
2026-04-17 13:33 65.30569 -38.12894 8497 ft 143 kts 47°
2026-04-17 13:34 65.31343 -38.11466 8566 ft 137 kts 47°
2026-04-17 13:34 65.32091 -38.10083 8475 ft 136 kts 48°
2026-04-17 13:34 65.32832 -38.08699 8347 ft 135 kts 48°
2026-04-17 13:34 65.33583 -38.07291 8133 ft 139 kts 48°
2026-04-17 13:35 65.34327 -38.05909 8084 ft 132 kts 48°
2026-04-17 13:35 65.35062 -38.04536 7900 ft 136 kts 48°
2026-04-17 13:35 65.35810 -38.03132 7767 ft 136 kts 47°
2026-04-17 13:35 65.36565 -38.01724 7584 ft 139 kts 47°
2026-04-17 13:36 65.37326 -38.00305 7459 ft 138 kts 47°
2026-04-17 13:36 65.38078 -37.98900 7312 ft 138 kts 47°
2026-04-17 13:36 65.38847 -37.97456 7109 ft 141 kts 47°
2026-04-17 13:36 65.39618 -37.96019 6990 ft 139 kts 47°
2026-04-17 13:37 65.40380 -37.94596 6839 ft 139 kts 47°
2026-04-17 13:37 65.41145 -37.93160 6694 ft 139 kts 47°
2026-04-17 13:37 65.41907 -37.91736 6568 ft 139 kts 47°
2026-04-17 13:37 65.42667 -37.90307 6422 ft 139 kts 47°
2026-04-17 13:38 65.43426 -37.88879 6293 ft 138 kts 46°
2026-04-17 13:38 65.44184 -37.87454 6160 ft 138 kts 47°
2026-04-17 13:38 65.44939 -37.86030 6022 ft 138 kts 46°
2026-04-17 13:38 65.45708 -37.84632 5900 ft 139 kts 46°
2026-04-17 13:39 65.46447 -37.83210 5780 ft 138 kts 47°
2026-04-17 13:39 65.47206 -37.81730 5638 ft 142 kts 46°
2026-04-17 13:39 65.47982 -37.80267 5496 ft 142 kts 45°
2026-04-17 13:39 65.48747 -37.78782 5364 ft 141 kts 46°
2026-04-17 13:40 65.49505 -37.77283 5237 ft 141 kts 53°
2026-04-17 13:40 65.50007 -37.75295 5082 ft 136 kts 73°
2026-04-17 13:40 65.50375 -37.73229 4849 ft 134 kts 71°
2026-04-17 13:40 65.50758 -37.71181 4610 ft 134 kts 71°
2026-04-17 13:41 65.51131 -37.69142 4389 ft 132 kts 72°
2026-04-17 13:41 65.51495 -37.67100 4141 ft 133 kts 72°
2026-04-17 13:41 65.51859 -37.65060 3916 ft 132 kts 72°
2026-04-17 13:41 65.52218 -37.63057 3749 ft 127 kts 72°
2026-04-17 13:42 65.52565 -37.61116 3552 ft 127 kts 72°
2026-04-17 13:42 65.52910 -37.59175 3399 ft 123 kts 71°
2026-04-17 13:42 65.53238 -37.57350 3297 ft 119 kts 71°
2026-04-17 13:42 65.53569 -37.55501 3131 ft 120 kts 71°
2026-04-17 13:43 65.53899 -37.53664 3000 ft 119 kts 71°
2026-04-17 13:43 65.54222 -37.51866 2902 ft 115 kts 71°
2026-04-17 13:43 65.54535 -37.50113 2787 ft 113 kts 72°
2026-04-17 13:43 65.54839 -37.48398 2725 ft 107 kts 72°
2026-04-17 13:44 65.55123 -37.46803 2710 ft 101 kts 72°
2026-04-17 13:44 65.55402 -37.45246 2716 ft 102 kts 72°
2026-04-17 13:44 65.55684 -37.43666 2724 ft 103 kts 72°
2026-04-17 13:44 65.55966 -37.42062 2728 ft 104 kts 73°
2026-04-17 13:45 65.56128 -37.40356 2735 ft 104 kts 86°
2026-04-17 13:45 65.56210 -37.38536 2618 ft 114 kts 86°
2026-04-17 13:45 65.56297 -37.36587 2464 ft 118 kts 86°
2026-04-17 13:45 65.56386 -37.34623 2246 ft 117 kts 85°
2026-04-17 13:46 65.56472 -37.32717 2110 ft 111 kts 85°
2026-04-17 13:46 65.56554 -37.30885 1960 ft 109 kts 85°
2026-04-17 13:46 65.56636 -37.29041 1765 ft 112 kts 84°
2026-04-17 13:46 65.56718 -37.27158 1534 ft 111 kts 84°
2026-04-17 13:47 65.56800 -37.25294 1314 ft 111 kts 84°
2026-04-17 13:47 65.56854 -37.24085 1213 ft 107 kts 83°
2026-04-17 13:47 65.56928 -37.22373 991 ft 98 kts 83°
2026-04-17 13:47 65.56977 -37.20800 814 ft 90 kts 86°
2026-04-17 13:48 65.57019 -37.19378 708 ft 80 kts 83°
2026-04-17 13:48 65.57103 -37.18112 571 ft 74 kts 82°
2026-04-17 13:48 65.57166 -37.16896 434 ft 70 kts 85°
2026-04-17 13:48 65.57214 -37.15754 342 ft 68 kts 83°
2026-04-17 13:49 65.57259 -37.14612 234 ft 69 kts 85°
2026-04-17 13:49 65.57306 -37.13470 115 ft 62 kts 85°
2026-04-17 13:49 65.57337 -37.12725 105 ft 28 kts 84°
2026-04-17 13:49 65.57341 -37.12646 104 ft 2 kts 71°
2026-04-17 13:50 65.57350 -37.12648 104 ft 3 kts 277°
2026-04-17 13:50 65.57336 -37.12764 105 ft 11 kts 252°
2026-04-17 13:50 65.57323 -37.12999 105 ft 16 kts 263°
2026-04-17 13:50 65.57309 -37.13249 107 ft 13 kts 264°
2026-04-17 13:51 65.57349 -37.13431 107 ft 15 kts 324°
2026-04-17 13:51 65.57397 -37.13459 107 ft 0 kts 353°